Location: Shepherdstown, WV
(39.4326°N, 77.8042°W)
Time: 19:11:41
(UTC-04:00)

X-37B - Pass Details

Date: 26 June 2021
Orbit: 383 x 392 km, 45.0° (Epoch: 01 July)

Event Time Altitude Azimuth Distance (km) Brightness Sun altitude
Rises 21:20:35 0° 253° (WSW) 2,251 5.0 -6.9°
Reaches altitude 10° 21:22:39 10° 257° (WSW) 1,399 4.0 -7.2°
Maximum altitude 21:25:46 61° 338° (NNW) 438 1.1 -7.7°
Drops below altitude 10° 21:28:54 10° 61° (ENE) 1,402 3.2 -8.1°
Sets 21:30:59 0° 65° (ENE) 2,256 4.2 -8.5°
